Station Historical Data
Daily Summary for January 25, 2018 Units:  English    Metric   Both
« Previous Day
Next Day »
Daily Weekly Monthly Yearly Custom
  High: Low: Average:
Temperature: 27.5 °F 13.5 °F 21.6 °F
Dew Point: 20.0 °F 9.0 °F 13.8 °F
Humidity: 84% 53% 72%
Wind Speed: 11.0mph 0.0mph 2.3mph
Wind Gust: 13.0mph - -
Wind- - WSW
Pressure: 30.57 in 30.33 in -
Precipitation: 0.00 in    
Historical Graphs
 
 
Tabular Data for January 25, 2018
Time Temperature Dew Point Pressure Wind Wind Speed Wind Gust Humidity Rainfall Rate (Hourly)
00:00 20.4 °F 13.7 °F 30.33 in NNW 2.0 mph 7.0 mph 75% 0.00 in
00:05 20.3 °F 13.3 °F 30.33 in NNW 3.0 mph 7.0 mph 74% 0.00 in
00:10 20.2 °F 13.2 °F 30.33 in NNW 3.0 mph 7.0 mph 74% 0.00 in
00:15 20.2 °F 13.2 °F 30.33 in NNW 2.0 mph 6.0 mph 74% 0.00 in
00:20 20.2 °F 13.2 °F 30.33 in NNW 3.0 mph 6.0 mph 74% 0.00 in
00:25 20.2 °F 13.2 °F 30.33 in NNW 6.0 mph 6.0 mph 74% 0.00 in
00:30 20.1 °F 13.1 °F 30.34 in Calm   6.0 mph 74% 0.00 in
00:35 20.0 °F 13.0 °F 30.34 in NNW 1.0 mph 4.0 mph 74% 0.00 in
00:40 19.9 °F 12.9 °F 30.34 in NNW 1.0 mph 4.0 mph 74% 0.00 in
00:45 19.8 °F 12.8 °F 30.34 in NNW 2.0 mph 5.0 mph 74% 0.00 in
00:50 19.7 °F 12.8 °F 30.34 in NNW 2.0 mph 5.0 mph 74% 0.00 in
00:55 19.5 °F 12.6 °F 30.34 in NNW 2.0 mph 5.0 mph 74% 0.00 in
01:00 19.3 °F 12.4 °F 30.34 in NNW 2.0 mph 3.0 mph 74% 0.00 in
01:05 19.2 °F 12.3 °F 30.35 in NNW 1.0 mph 4.0 mph 74% 0.00 in
01:10 19.1 °F 12.2 °F 30.35 in NNW 2.0 mph 5.0 mph 74% 0.00 in
01:15 19.0 °F 12.1 °F 30.35 in NNW 2.0 mph 5.0 mph 74% 0.00 in
01:20 18.9 °F 12.0 °F 30.35 in NNW 2.0 mph 5.0 mph 74% 0.00 in
01:25 18.9 °F 12.0 °F 30.35 in NNW 2.0 mph 5.0 mph 74% 0.00 in
01:30 18.9 °F 12.0 °F 30.35 in North 1.0 mph 5.0 mph 74% 0.00 in
01:35 18.6 °F 12.0 °F 30.36 in North 2.0 mph 3.0 mph 75% 0.00 in
01:40 18.5 °F 11.9 °F 30.36 in NNW 2.0 mph 5.0 mph 75% 0.00 in
01:45 18.4 °F 11.8 °F 30.36 in Calm   2.0 mph 75% 0.00 in
01:50 18.3 °F 11.7 °F 30.36 in NNW 1.0 mph 5.0 mph 75% 0.00 in
01:55 18.2 °F 11.9 °F 30.37 in NNW 2.0 mph 5.0 mph 76% 0.00 in
02:00 18.2 °F 11.9 °F 30.37 in NNW 3.0 mph 6.0 mph 76% 0.00 in
02:05 18.1 °F 11.8 °F 30.37 in Calm   5.0 mph 76% 0.00 in
02:10 18.0 °F 11.7 °F 30.38 in NNW 3.0 mph 4.0 mph 76% 0.00 in
02:15 17.8 °F 11.5 °F 30.38 in NNW 2.0 mph 3.0 mph 76% 0.00 in
02:20 17.8 °F 11.5 °F 30.38 in Calm   4.0 mph 76% 0.00 in
02:25 17.6 °F 11.3 °F 30.38 in NNW 1.0 mph 4.0 mph 76% 0.00 in
02:30 17.4 °F 11.4 °F 30.39 in NNW 1.0 mph 3.0 mph 77% 0.00 in
02:35 17.3 °F 11.3 °F 30.39 in NNW 1.0 mph 3.0 mph 77% 0.00 in
02:40 17.3 °F 11.3 °F 30.39 in Calm   4.0 mph 77% 0.00 in
02:45 17.2 °F 11.2 °F 30.39 in Calm     77% 0.00 in
02:50 17.1 °F 11.1 °F 30.39 in Calm     77% 0.00 in
02:55 17.0 °F 11.0 °F 30.39 in Calm     77% 0.00 in
03:00 16.9 °F 11.2 °F 30.39 in Calm     78% 0.00 in
03:05 16.8 °F 11.1 °F 30.39 in Calm     78% 0.00 in
03:10 16.7 °F 11.0 °F 30.39 in Calm     78% 0.00 in
03:15 16.6 °F 10.9 °F 30.39 in Calm     78% 0.00 in
03:20 16.4 °F 10.7 °F 30.40 in Calm     78% 0.00 in
03:25 16.3 °F 10.6 °F 30.40 in Calm     78% 0.00 in
03:30 16.2 °F 10.8 °F 30.40 in Calm     79% 0.00 in
03:35 16.0 °F 10.6 °F 30.40 in Calm     79% 0.00 in
03:40 16.0 °F 10.6 °F 30.40 in Calm     79% 0.00 in
03:45 15.9 °F 10.8 °F 30.41 in Calm     80% 0.00 in
03:50 16.0 °F 10.9 °F 30.41 in Calm     80% 0.00 in
04:00 16.4 °F 11.3 °F 30.41 in NW 2.0 mph 7.0 mph 80% 0.00 in
04:05 16.5 °F 11.4 °F 30.41 in NW 2.0 mph 7.0 mph 80% 0.00 in
04:10 16.6 °F 11.2 °F 30.41 in NNW 2.0 mph 6.0 mph 79% 0.00 in
04:15 16.6 °F 11.2 °F 30.41 in Calm   4.0 mph 79% 0.00 in
04:20 16.6 °F 11.2 °F 30.42 in NW 3.0 mph 5.0 mph 79% 0.00 in
04:25 16.4 °F 10.7 °F 30.42 in NW 3.0 mph 4.0 mph 78% 0.00 in
04:30 16.4 °F 10.7 °F 30.42 in NW 3.0 mph 6.0 mph 78% 0.00 in
04:35 16.4 °F 10.7 °F 30.42 in NW 2.0 mph 4.0 mph 78% 0.00 in
04:40 16.2 °F 10.5 °F 30.43 in NW 1.0 mph 4.0 mph 78% 0.00 in
04:45 16.2 °F 10.5 °F 30.43 in NW 1.0 mph 4.0 mph 78% 0.00 in
04:50 16.0 °F 10.3 °F 30.43 in NW 1.0 mph 4.0 mph 78% 0.00 in
04:55 15.9 °F 10.3 °F 30.44 in NW 1.0 mph 4.0 mph 78% 0.00 in
05:00 15.8 °F 10.4 °F 30.44 in NW 1.0 mph 3.0 mph 79% 0.00 in
05:05 15.8 °F 10.2 °F 30.44 in NW 1.0 mph 2.0 mph 78% 0.00 in
05:10 15.7 °F 10.3 °F 30.44 in NW 2.0 mph 2.0 mph 79% 0.00 in
05:15 15.7 °F 10.3 °F 30.44 in NW 1.0 mph 3.0 mph 79% 0.00 in
05:20 15.8 °F 10.4 °F 30.44 in NW 1.0 mph 3.0 mph 79% 0.00 in
05:25 15.8 °F 10.4 °F 30.45 in Calm   3.0 mph 79% 0.00 in
05:30 15.8 °F 10.4 °F 30.45 in Calm   4.0 mph 79% 0.00 in
05:35 15.8 °F 10.4 °F 30.45 in Calm     79% 0.00 in
05:40 15.8 °F 10.4 °F 30.44 in Calm     79% 0.00 in
05:45 15.8 °F 10.4 °F 30.45 in Calm     79% 0.00 in
05:50 15.7 °F 10.3 °F 30.45 in Calm     79% 0.00 in
05:55 15.7 °F 10.3 °F 30.45 in Calm     79% 0.00 in
06:00 15.6 °F 10.2 °F 30.45 in Calm     79% 0.00 in
06:05 15.5 °F 10.1 °F 30.46 in Calm     79% 0.00 in
06:10 15.3 °F 10.0 °F 30.46 in Calm     79% 0.00 in
06:15 15.1 °F 9.8 °F 30.46 in Calm     79% 0.00 in
06:20 14.9 °F 9.6 °F 30.46 in Calm     79% 0.00 in
06:25 14.8 °F 9.7 °F 30.47 in Calm     80% 0.00 in
06:30 14.7 °F 9.6 °F 30.46 in Calm     80% 0.00 in
06:35 14.5 °F 9.5 °F 30.47 in Calm     80% 0.00 in
06:40 14.4 °F 9.4 °F 30.47 in Calm     80% 0.00 in
06:45 14.4 °F 9.6 °F 30.48 in Calm     81% 0.00 in
06:50 14.3 °F 9.5 °F 30.48 in Calm     81% 0.00 in
06:55 14.4 °F 9.6 °F 30.48 in Calm     81% 0.00 in
07:00 14.3 °F 9.5 °F 30.49 in Calm     81% 0.00 in
07:05 14.2 °F 9.4 °F 30.49 in Calm     81% 0.00 in
07:10 14.0 °F 9.2 °F 30.49 in Calm     81% 0.00 in
07:15 13.9 °F 9.4 °F 30.49 in Calm     82% 0.00 in
07:20 13.7 °F 9.2 °F 30.49 in Calm     82% 0.00 in
07:25 13.7 °F 9.2 °F 30.49 in Calm     82% 0.00 in
07:30 13.6 °F 9.1 °F 30.49 in Calm     82% 0.00 in
07:35 13.5 °F 9.0 °F 30.49 in Calm     82% 0.00 in
07:40 13.7 °F 9.5 °F 30.50 in Calm     83% 0.00 in
07:45 13.5 °F 9.3 °F 30.50 in Calm     83% 0.00 in
07:50 13.5 °F 9.3 °F 30.50 in Calm     83% 0.00 in
07:55 13.7 °F 9.8 °F 30.50 in Calm     84% 0.00 in
08:00 13.7 °F 9.5 °F 30.50 in Calm     83% 0.00 in
08:05 13.9 °F 10.0 °F 30.50 in Calm     84% 0.00 in
08:10 14.1 °F 10.2 °F 30.50 in Calm     84% 0.00 in
08:15 14.4 °F 10.4 °F 30.50 in Calm     84% 0.00 in
08:20 14.8 °F 10.8 °F 30.51 in Calm     84% 0.00 in
08:25 15.4 °F 11.4 °F 30.51 in Calm     84% 0.00 in
08:30 16.2 °F 12.2 °F 30.51 in Calm     84% 0.00 in
08:35 16.8 °F 12.3 °F 30.51 in Calm     82% 0.00 in
08:40 17.3 °F 12.2 °F 30.52 in Calm     80% 0.00 in
08:45 17.4 °F 12.0 °F 30.52 in Calm     79% 0.00 in
08:50 17.9 °F 12.2 °F 30.52 in Calm   1.0 mph 78% 0.00 in
08:55 18.0 °F 12.0 °F 30.52 in Calm   1.0 mph 77% 0.00 in
09:00 18.2 °F 12.2 °F 30.52 in Calm   4.0 mph 77% 0.00 in
09:05 18.2 °F 11.9 °F 30.52 in Calm   2.0 mph 76% 0.00 in
09:10 18.4 °F 12.1 °F 30.52 in Calm     76% 0.00 in
09:15 18.5 °F 11.9 °F 30.52 in NW 1.0 mph 4.0 mph 75% 0.00 in
09:20 18.6 °F 12.0 °F 30.52 in WNW 2.0 mph 4.0 mph 75% 0.00 in
09:25 18.8 °F 12.2 °F 30.53 in Calm   3.0 mph 75% 0.00 in
09:30 18.9 °F 12.3 °F 30.53 in Calm   3.0 mph 75% 0.00 in
09:35 19.1 °F 12.5 °F 30.53 in WNW 3.0 mph 3.0 mph 75% 0.00 in
09:40 19.1 °F 12.2 °F 30.53 in WNW 1.0 mph 4.0 mph 74% 0.00 in
09:45 19.5 °F 12.9 °F 30.53 in West 3.0 mph 6.0 mph 75% 0.00 in
09:50 19.7 °F 13.1 °F 30.53 in West 3.0 mph 6.0 mph 75% 0.00 in
09:55 20.1 °F 13.4 °F 30.54 in WSW 3.0 mph 5.0 mph 75% 0.00 in
10:00 20.0 °F 13.0 °F 30.54 in SW 3.0 mph 8.0 mph 74% 0.00 in
10:05 19.9 °F 12.6 °F 30.54 in SW 3.0 mph 8.0 mph 73% 0.00 in
10:10 20.0 °F 13.0 °F 30.54 in Calm   6.0 mph 74% 0.00 in
10:15 20.1 °F 13.1 °F 30.54 in SW 3.0 mph 6.0 mph 74% 0.00 in
10:20 20.0 °F 12.4 °F 30.54 in WSW 4.0 mph 6.0 mph 72% 0.00 in
10:25 20.0 °F 12.4 °F 30.54 in WSW 3.0 mph 7.0 mph 72% 0.00 in
10:30 20.2 °F 12.6 °F 30.54 in WSW 4.0 mph 7.0 mph 72% 0.00 in
10:35 20.4 °F 12.8 °F 30.54 in SW 4.0 mph 7.0 mph 72% 0.00 in
10:40 20.8 °F 12.9 °F 30.54 in SW 3.0 mph 7.0 mph 71% 0.00 in
10:45 21.1 °F 13.2 °F 30.54 in SW 4.0 mph 8.0 mph 71% 0.00 in
10:50 21.4 °F 13.5 °F 30.53 in SW 3.0 mph 9.0 mph 71% 0.00 in
10:55 22.0 °F 13.7 °F 30.54 in SW 5.0 mph 8.0 mph 70% 0.00 in
11:00 21.5 °F 13.2 °F 30.54 in SW 4.0 mph 8.0 mph 70% 0.00 in
11:05 21.4 °F 12.8 °F 30.54 in SW 4.0 mph 8.0 mph 69% 0.00 in
11:10 21.5 °F 12.9 °F 30.54 in SW 4.0 mph 8.0 mph 69% 0.00 in
11:15 21.9 °F 13.3 °F 30.54 in SW 4.0 mph 8.0 mph 69% 0.00 in
11:20 22.2 °F 13.2 °F 30.54 in WSW 3.0 mph 6.0 mph 68% 0.00 in
11:25 22.4 °F 13.4 °F 30.54 in WSW 5.0 mph 7.0 mph 68% 0.00 in
11:30 22.2 °F 13.2 °F 30.54 in SW 5.0 mph 10.0 mph 68% 0.00 in
11:35 22.4 °F 13.4 °F 30.53 in WSW 5.0 mph 10.0 mph 68% 0.00 in
11:40 22.4 °F 13.1 °F 30.53 in WSW 5.0 mph 8.0 mph 67% 0.00 in
11:45 22.9 °F 13.9 °F 30.53 in South 3.0 mph 8.0 mph 68% 0.00 in
11:50 23.3 °F 14.0 °F 30.53 in South 6.0 mph 8.0 mph 67% 0.00 in
11:55 23.2 °F 14.2 °F 30.53 in SW 1.0 mph 7.0 mph 68% 0.00 in
12:00 23.5 °F 14.5 °F 30.53 in SW 4.0 mph 8.0 mph 68% 0.00 in
12:05 23.4 °F 14.0 °F 30.52 in WSW 4.0 mph 9.0 mph 67% 0.00 in
12:10 23.4 °F 13.7 °F 30.52 in WSW 4.0 mph 6.0 mph 66% 0.00 in
12:15 23.4 °F 14.4 °F 30.52 in South 4.0 mph 7.0 mph 68% 0.00 in
12:20 23.6 °F 14.2 °F 30.52 in SSW 4.0 mph 7.0 mph 67% 0.00 in
12:25 24.2 °F 14.5 °F 30.52 in SW 7.0 mph 7.0 mph 66% 0.00 in
12:30 24.3 °F 14.2 °F 30.52 in SW 4.0 mph 9.0 mph 65% 0.00 in
12:35 24.0 °F 13.9 °F 30.52 in WSW 5.0 mph 9.0 mph 65% 0.00 in
12:40 24.3 °F 14.2 °F 30.52 in WSW 5.0 mph 10.0 mph 65% 0.00 in
12:45 24.0 °F 13.9 °F 30.53 in WSW 5.0 mph 11.0 mph 65% 0.00 in
12:50 24.2 °F 13.8 °F 30.53 in WSW 5.0 mph 11.0 mph 64% 0.00 in
12:55 23.9 °F 13.1 °F 30.52 in WNW 7.0 mph 11.0 mph 63% 0.00 in
13:00 24.1 °F 13.3 °F 30.52 in WSW 6.0 mph 11.0 mph 63% 0.00 in
13:05 24.6 °F 13.4 °F 30.52 in WSW 4.0 mph 9.0 mph 62% 0.00 in
13:10 24.9 °F 13.7 °F 30.52 in SW 6.0 mph 8.0 mph 62% 0.00 in
13:15 24.6 °F 14.1 °F 30.52 in WSW 3.0 mph 9.0 mph 64% 0.00 in
13:20 24.6 °F 14.5 °F 30.52 in West 3.0 mph 11.0 mph 65% 0.00 in
13:25 24.4 °F 14.0 °F 30.52 in South 4.0 mph 11.0 mph 64% 0.00 in
13:30 25.5 °F 15.0 °F 30.52 in SW 5.0 mph 11.0 mph 64% 0.00 in
13:35 24.9 °F 14.4 °F 30.52 in SW 5.0 mph 12.0 mph 64% 0.00 in
13:40 24.7 °F 14.6 °F 30.52 in SW 6.0 mph 12.0 mph 65% 0.00 in
13:45 24.5 °F 14.8 °F 30.52 in WSW 7.0 mph 12.0 mph 66% 0.00 in
13:50 24.8 °F 14.7 °F 30.52 in WSW 7.0 mph 12.0 mph 65% 0.00 in
13:55 24.0 °F 14.3 °F 30.52 in West 7.0 mph 13.0 mph 66% 0.00 in
14:00 23.4 °F 14.4 °F 30.52 in WSW 7.0 mph 11.0 mph 68% 0.00 in
14:05 24.4 °F 15.7 °F 30.52 in SW 7.0 mph 11.0 mph 69% 0.00 in
14:10 25.6 °F 16.8 °F 30.52 in WSW 4.0 mph 10.0 mph 69% 0.00 in
14:15 24.8 °F 15.4 °F 30.52 in SW 5.0 mph 11.0 mph 67% 0.00 in
14:20 24.8 °F 15.4 °F 30.52 in WSW 7.0 mph 11.0 mph 67% 0.00 in
14:25 24.6 °F 14.5 °F 30.52 in SW 9.0 mph 12.0 mph 65% 0.00 in
14:30 23.9 °F 14.2 °F 30.52 in WSW 6.0 mph 10.0 mph 66% 0.00 in
14:35 24.3 °F 15.3 °F 30.52 in SW 5.0 mph 10.0 mph 68% 0.00 in
14:40 25.2 °F 15.4 °F 30.51 in SW 5.0 mph 11.0 mph 66% 0.00 in
14:45 25.1 °F 15.7 °F 30.52 in SW 6.0 mph 11.0 mph 67% 0.00 in
14:50 24.5 °F 14.8 °F 30.52 in SW 6.0 mph 11.0 mph 66% 0.00 in
14:55 24.4 °F 13.6 °F 30.52 in WSW 7.0 mph 12.0 mph 63% 0.00 in
15:00 24.9 °F 13.7 °F 30.52 in WSW 6.0 mph 12.0 mph 62% 0.00 in
15:05 25.1 °F 14.3 °F 30.52 in WSW 6.0 mph 13.0 mph 63% 0.00 in
15:10 24.8 °F 12.5 °F 30.52 in WSW 6.0 mph 13.0 mph 59% 0.00 in
15:15 24.7 °F 11.2 °F 30.52 in West 2.0 mph 10.0 mph 56% 0.00 in
15:20 24.5 °F 11.8 °F 30.51 in West 6.0 mph 7.0 mph 58% 0.00 in
15:25 25.2 °F 10.4 °F 30.52 in West 3.0 mph 7.0 mph 53% 0.00 in
15:30 25.5 °F 11.1 °F 30.51 in SW 2.0 mph 10.0 mph 54% 0.00 in
15:35 25.2 °F 11.7 °F 30.51 in South 6.0 mph 8.0 mph 56% 0.00 in
15:40 25.0 °F 12.7 °F 30.51 in SW 6.0 mph 7.0 mph 59% 0.00 in
15:45 25.0 °F 13.4 °F 30.51 in SW 4.0 mph 10.0 mph 61% 0.00 in
15:50 24.8 °F 13.6 °F 30.51 in SW 4.0 mph 10.0 mph 62% 0.00 in
15:55 24.8 °F 14.0 °F 30.51 in SSW 5.0 mph 10.0 mph 63% 0.00 in
16:00 24.9 °F 14.1 °F 30.52 in SSW 4.0 mph 9.0 mph 63% 0.00 in
16:05 24.9 °F 14.1 °F 30.52 in SW 4.0 mph 10.0 mph 63% 0.00 in
16:10 24.9 °F 14.4 °F 30.52 in SW 5.0 mph 10.0 mph 64% 0.00 in
16:15 24.8 °F 14.3 °F 30.52 in SW 5.0 mph 9.0 mph 64% 0.00 in
16:20 24.7 °F 14.6 °F 30.52 in WSW 6.0 mph 10.0 mph 65% 0.00 in
16:25 24.9 °F 15.1 °F 30.52 in SW 4.0 mph 6.0 mph 66% 0.00 in
16:30 24.9 °F 14.8 °F 30.52 in SW 7.0 mph 9.0 mph 65% 0.00 in
16:35 24.9 °F 14.8 °F 30.52 in SW 3.0 mph 7.0 mph 65% 0.00 in
16:40 24.8 °F 14.7 °F 30.52 in West 3.0 mph 8.0 mph 65% 0.00 in
16:45 24.9 °F 15.1 °F 30.52 in SW 4.0 mph 7.0 mph 66% 0.00 in
16:50 24.9 °F 14.8 °F 30.52 in SW 4.0 mph 7.0 mph 65% 0.00 in
16:55 25.1 °F 15.0 °F 30.52 in SW 4.0 mph 7.0 mph 65% 0.00 in
17:00 25.2 °F 15.1 °F 30.52 in SW 3.0 mph 7.0 mph 65% 0.00 in
17:05 25.3 °F 15.5 °F 30.52 in SW 3.0 mph 7.0 mph 66% 0.00 in
17:10 25.4 °F 15.6 °F 30.52 in SW 3.0 mph 8.0 mph 66% 0.00 in
17:15 25.3 °F 15.5 °F 30.52 in WSW 4.0 mph 9.0 mph 66% 0.00 in
17:20 25.3 °F 15.9 °F 30.52 in SW 7.0 mph 8.0 mph 67% 0.00 in
17:25 25.3 °F 15.9 °F 30.52 in WSW 5.0 mph 10.0 mph 67% 0.00 in
17:30 25.3 °F 16.2 °F 30.52 in WSW 11.0 mph 11.0 mph 68% 0.00 in
17:35 25.3 °F 15.9 °F 30.53 in SSW 3.0 mph 11.0 mph 67% 0.00 in
17:40 25.2 °F 15.4 °F 30.53 in SW 3.0 mph 8.0 mph 66% 0.00 in
17:45 25.3 °F 15.5 °F 30.53 in SW 2.0 mph 6.0 mph 66% 0.00 in
17:50 25.4 °F 15.6 °F 30.53 in SSW 2.0 mph 8.0 mph 66% 0.00 in
17:55 25.4 °F 15.6 °F 30.53 in WSW 4.0 mph 9.0 mph 66% 0.00 in
18:00 25.4 °F 15.6 °F 30.53 in WSW 4.0 mph 9.0 mph 66% 0.00 in
18:05 25.5 °F 15.4 °F 30.53 in WSW 4.0 mph 9.0 mph 65% 0.00 in
18:10 25.6 °F 15.1 °F 30.53 in WSW 3.0 mph 8.0 mph 64% 0.00 in
18:15 25.6 °F 15.1 °F 30.54 in WSW 4.0 mph 9.0 mph 64% 0.00 in
18:20 25.7 °F 15.2 °F 30.54 in WSW 4.0 mph 9.0 mph 64% 0.00 in
18:25 25.7 °F 15.2 °F 30.54 in WSW 4.0 mph 9.0 mph 64% 0.00 in
18:30 25.8 °F 15.3 °F 30.54 in SSW 5.0 mph 8.0 mph 64% 0.00 in
18:35 25.8 °F 15.3 °F 30.54 in West 3.0 mph 7.0 mph 64% 0.00 in
18:40 25.9 °F 15.4 °F 30.54 in SW 4.0 mph 7.0 mph 64% 0.00 in
18:45 25.9 °F 15.7 °F 30.54 in SW 2.0 mph 5.0 mph 65% 0.00 in
18:50 25.9 °F 16.1 °F 30.55 in SW 3.0 mph 4.0 mph 66% 0.00 in
18:55 26.0 °F 15.8 °F 30.55 in WSW 6.0 mph 7.0 mph 65% 0.00 in
19:00 26.0 °F 15.8 °F 30.54 in WSW 2.0 mph 6.0 mph 65% 0.00 in
19:05 26.0 °F 15.8 °F 30.55 in WSW 3.0 mph 7.0 mph 65% 0.00 in
19:10 26.0 °F 15.8 °F 30.55 in WSW 3.0 mph 6.0 mph 65% 0.00 in
19:15 26.0 °F 15.8 °F 30.55 in WSW 3.0 mph 6.0 mph 65% 0.00 in
19:20 26.1 °F 16.3 °F 30.55 in WSW 3.0 mph 6.0 mph 66% 0.00 in
19:25 26.1 °F 16.3 °F 30.55 in WSW 2.0 mph 5.0 mph 66% 0.00 in
19:30 26.1 °F 16.3 °F 30.55 in WSW 2.0 mph 5.0 mph 66% 0.00 in
19:35 26.2 °F 16.7 °F 30.56 in WSW 2.0 mph 5.0 mph 67% 0.00 in
19:40 26.2 °F 16.7 °F 30.56 in WSW 2.0 mph 5.0 mph 67% 0.00 in
19:45 26.2 °F 17.1 °F 30.56 in WSW 1.0 mph 5.0 mph 68% 0.00 in
19:50 26.2 °F 17.1 °F 30.56 in Calm   3.0 mph 68% 0.00 in
19:55 26.2 °F 17.4 °F 30.55 in SW 1.0 mph 4.0 mph 69% 0.00 in
20:00 26.2 °F 17.4 °F 30.55 in SW 1.0 mph 4.0 mph 69% 0.00 in
20:05 26.1 °F 17.3 °F 30.55 in SW 3.0 mph 4.0 mph 69% 0.00 in
20:10 26.1 °F 17.6 °F 30.55 in SW 2.0 mph 6.0 mph 70% 0.00 in
20:15 26.1 °F 17.6 °F 30.55 in SW 2.0 mph 6.0 mph 70% 0.00 in
20:20 26.1 °F 18.0 °F 30.55 in SSW 1.0 mph 4.0 mph 71% 0.00 in
20:25 26.1 °F 18.0 °F 30.55 in SSW 1.0 mph 4.0 mph 71% 0.00 in
20:30 26.2 °F 18.1 °F 30.55 in SSW 1.0 mph 4.0 mph 71% 0.00 in
20:35 26.2 °F 18.1 °F 30.55 in SSW 1.0 mph 4.0 mph 71% 0.00 in
20:40 26.3 °F 18.5 °F 30.56 in SSW 1.0 mph 4.0 mph 72% 0.00 in
20:45 26.2 °F 18.1 °F 30.56 in Calm   4.0 mph 71% 0.00 in
20:50 26.3 °F 18.2 °F 30.56 in Calm   2.0 mph 71% 0.00 in
20:55 26.3 °F 18.5 °F 30.56 in Calm     72% 0.00 in
21:00 26.3 °F 18.5 °F 30.56 in Calm   1.0 mph 72% 0.00 in
21:05 26.3 °F 18.5 °F 30.56 in Calm     72% 0.00 in
21:10 26.4 °F 18.6 °F 30.56 in SSW 2.0 mph 2.0 mph 72% 0.00 in
21:15 26.4 °F 18.6 °F 30.56 in Calm   2.0 mph 72% 0.00 in
21:20 26.5 °F 18.7 °F 30.56 in SSW 1.0 mph 3.0 mph 72% 0.00 in
21:25 26.5 °F 18.7 °F 30.56 in SSW 1.0 mph 3.0 mph 72% 0.00 in
21:30 26.4 °F 18.6 °F 30.56 in SSW 1.0 mph 3.0 mph 72% 0.00 in
21:35 26.5 °F 18.7 °F 30.56 in Calm   2.0 mph 72% 0.00 in
21:40 26.6 °F 18.8 °F 30.57 in SSW 2.0 mph 3.0 mph 72% 0.00 in
21:45 26.6 °F 18.8 °F 30.56 in SSW 1.0 mph 2.0 mph 72% 0.00 in
21:50 26.6 °F 18.8 °F 30.57 in SSW 1.0 mph 3.0 mph 72% 0.00 in
21:55 26.6 °F 18.8 °F 30.56 in SSW 1.0 mph 4.0 mph 72% 0.00 in
22:00 26.6 °F 18.8 °F 30.56 in SSW 1.0 mph 4.0 mph 72% 0.00 in
22:05 26.7 °F 18.9 °F 30.56 in SSW 2.0 mph 3.0 mph 72% 0.00 in
22:10 26.8 °F 18.7 °F 30.56 in Calm   3.0 mph 71% 0.00 in
22:15 26.9 °F 18.7 °F 30.56 in SSW 2.0 mph 4.0 mph 71% 0.00 in
22:20 26.9 °F 18.7 °F 30.57 in SSW 1.0 mph 4.0 mph 71% 0.00 in
22:25 26.9 °F 18.7 °F 30.56 in SSW 1.0 mph 4.0 mph 71% 0.00 in
22:30 27.0 °F 18.8 °F 30.56 in SSW 1.0 mph 4.0 mph 71% 0.00 in
22:35 27.1 °F 18.9 °F 30.56 in SSW 1.0 mph 3.0 mph 71% 0.00 in
22:40 27.1 °F 18.9 °F 30.56 in SSW 1.0 mph 3.0 mph 71% 0.00 in
22:45 27.2 °F 19.0 °F 30.56 in Calm   2.0 mph 71% 0.00 in
22:50 27.2 °F 19.0 °F 30.56 in SSW 2.0 mph 3.0 mph 71% 0.00 in
22:55 27.2 °F 19.0 °F 30.56 in SSW 1.0 mph 3.0 mph 71% 0.00 in
23:00 27.2 °F 19.0 °F 30.57 in SSW 1.0 mph 3.0 mph 71% 0.00 in
23:05 27.2 °F 19.0 °F 30.57 in Calm   3.0 mph 71% 0.00 in
23:10 27.2 °F 19.4 °F 30.57 in Calm   2.0 mph 72% 0.00 in
23:15 27.2 °F 19.4 °F 30.57 in Calm     72% 0.00 in
23:20 27.2 °F 19.4 °F 30.57 in SSW 2.0 mph 3.0 mph 72% 0.00 in
23:25 27.2 °F 19.4 °F 30.57 in Calm   3.0 mph 72% 0.00 in
23:30 27.3 °F 19.5 °F 30.57 in Calm   2.0 mph 72% 0.00 in
23:35 27.4 °F 19.9 °F 30.57 in Calm   4.0 mph 73% 0.00 in
23:40 27.4 °F 19.9 °F 30.57 in Calm   4.0 mph 73% 0.00 in
23:45 27.4 °F 19.9 °F 30.57 in Calm     73% 0.00 in
23:50 27.4 °F 19.9 °F 30.57 in Calm     73% 0.00 in
23:55 27.5 °F 20.0 °F 30.57 in Calm     73% 0.00 in
Buffalo, New York, USA
Compliments of Weather Underground - 2.75 mb